This demonstration page uses our WeatherBlox Daily Observations layout. Learn more.

Left ArrowRight Arrow

39.92423, -83.80882

Hourly Observations for March 1, 2022

Temp ( °F °C ) Dew Point ( °F °C ) Humidity (%) Winds ( mph kmh ) Pressure ( in mb ) Visibility ( mi km ) Precip ( " mm )
12:56 am 00:56 Clear 38 3.3 28 -2.2 68 68 SW 9 15 30.06 1018 10 16 0.00 0.00
1:56 am 01:56 Clear 39 3.9 28 -2.2 65 65 SW 12 19 30.04 1017 10 16 0.00 0.00
2:56 am 02:56 Clear 39 3.9 28 -2.2 65 65 SW 10 17 30.04 1017 10 16 0.00 0.00
3:56 am 03:56 Partly Cloudy 40 4.4 28 -2.2 63 63 SW 9 15 30.03 1017 10 16 0.00 0.00
4:56 am 04:56 Clear 39 3.9 29 -1.7 67 67 SW 12 19 30.02 1017 10 16 0.00 0.00
5:56 am 05:56 Clear 39 3.9 28 -2.2 65 65 SW 12 19 30.03 1017 10 16 0.00 0.00
6:56 am 06:56 Mostly Clear 38 3.3 29 -1.7 70 70 SSW 10 17 30.03 1017 10 16 0.00 0.00
7:56 am 07:56 Mostly Cloudy 39 3.9 29 -1.7 67 67 SSW 10 17 30.05 1018 10 16 0.00 0.00
8:56 am 08:56 Mostly Cloudy 40 4.4 30 -1.1 68 68 SW 10 17 30.05 1018 10 16 0.00 0.00
9:56 am 09:56 Sunny 44 6.7 32 0 63 63 SW 16 26 30.01 1016 10 16 0.00 0.00
10:56 am 10:56 Mostly Cloudy 48 8.9 33 0.6 56 56 SSW 12 19 30.02 1017 10 16 0.00 0.00
11:56 am 11:56 Sunny 54 12.2 34 1.1 47 47 SW 15 24 30.01 1016 10 16 0.00 0.00
12:56 pm 12:56 Cloudy 58 14.4 34 1.1 41 41 SW 16 26 29.98 1015 10 16 0.00 0.00
1:56 pm 13:56 Cloudy 57 13.9 32 0 39 39 WSW 18 30 29.96 1014 10 16 0.00 0.00
2:56 pm 14:56 Mostly Sunny 60 15.6 35 1.7 39 39 WSW 20 31 29.93 1014 10 16 0.00 0.00
3:56 pm 15:56 Sunny 60 15.6 35 1.7 39 39 WSW 15 24 29.94 1014 10 16 0.00 0.00
4:56 pm 16:56 Cloudy 58 14.4 32 0 38 38 W 16 26 29.95 1014 10 16 0.00 0.00
5:56 pm 17:56 Partly Cloudy 56 13.3 35 1.7 46 46 W 10 17 29.96 1015 10 16 0.00 0.00
6:56 pm 18:56 Clear 51 10.6 34 1.1 52 52 W 6 9 29.99 1016 10 16 0.00 0.00
7:56 pm 19:56 Cloudy 52 11.1 34 1.1 50 50 NW 8 13 30.01 1016 10 16 0.00 0.00
8:56 pm 20:56 Cloudy 50 10 38 3.3 63 63 NNW 7 11 30.02 1017 10 16 0.00 0.00
9:56 pm 21:56 Cloudy 46 7.8 39 3.9 77 77 NE 6 9 30.05 1018 10 16 0.00 0.00
10:56 pm 22:56 Cloudy 47 8.3 38 3.3 71 71 N 8 13 30.06 1018 10 16 0.00 0.00
11:56 pm 23:56 Cloudy 45 7.2 36 2.2 71 71 N 8 13 30.06 1018 10 16 0.00 0.00

Powered by AerisWeather